RH
63 58 54 49 45 42 39 36 34 32 30 27 25 23 22 23 23 23 24 25 26 27 28 28 28 29 29 29 29 28 28 28 28 28 27 27 27 27 27 28 28 29 30 31 31 32 32 32 33 34 34 35 36 37 38 39 39 40 43 44 47 50 53 54 55 56 57 57 58 60 62 66 69 70 70 70 69 69 69 70 71 72 71 69 69
63 58 54 49 46 44 41 37 35 34 32 29 26 24 24 23 24 24 25 26 27 28 29 29 30 30 31 30 30 29 29 29 29 29 29 28 28 28 28 29 30 31 32 32 33 33 33 33 34 35 36 37 38 39 39 40 40 41 44 46 48 51 54 56 57 57 58 59 60 62 64 67 70 71 71 70 70 70 70 71 71 72 72 70 70
66 61 55 51 48 45 42 39 37 36 35 31 28 26 24 24 25 25 26 27 28 29 30 30 30 31 32 32 31 30 31 31 31 30 30 29 29 29 29 30 32 33 33 34 34 34 34 35 36 37 38 39 40 41 41 41 42 43 45 47 50 52 55 58 61 61 61 62 63 65 68 70 72 72 71 71 70 70 70 70 71 72 73 73 73
70 65 58 53 50 47 44 42 41 39 37 33 29 27 25 25 26 26 28 28 30 30 30 31 31 32 33 34 32 32 32 32 32 32 31 31 30 30 31 32 33 34 35 36 36 36 36 37 38 39 40 41 42 42 42 43 43 44 46 48 50 52 55 59 62 62 63 65 67 69 70 71 72 71 70 70 69 69 70 70 71 72 73 75 75
75 70 61 55 51 49 47 46 44 42 39 35 32 29 28 27 27 28 29 30 31 31 31 31 32 33 34 35 34 33 34 34 34 34 33 32 32 32 32 34 35 36 37 37 37 38 38 39 40 41 42 42 43 43 43 44 45 46 47 49 51 53 56 59 61 62 64 66 67 69 69 69 68 67 67 68 69 69 70 71 72 72 73 75 75
76 71 63 57 54 52 50 48 47 44 41 37 34 31 30 29 29 29 29 31 32 32 32 32 33 35 36 36 36 36 36 36 36 36 35 34 34 34 34 36 37 38 38 39 39 40 40 41 42 42 43 43 44 44 44 45 46 47 49 49 51 54 56 58 60 61 63 65 65 66 66 66 65 65 66 66 68 70 70 71 71 72 72 73 74
76 69 64 61 59 55 52 50 47 44 41 38 34 32 31 30 30 30 31 32 33 33 33 34 35 36 37 38 38 38 38 39 38 38 37 36 36 36 37 38 39 40 40 41 41 42 42 43 43 43 44 44 44 45 45 46 48 49 50 50 51 54 56 58 59 61 63 65 66 66 66 65 64 65 65 66 67 69 69 69 69 70 71 71 72
75 70 66 65 62 57 53 50 48 44 41 38 35 33 32 32 31 31 32 33 33 34 34 35 36 37 39 39 40 40 40 41 41 40 40 39 38 38 39 41 42 42 43 43 44 44 44 44 44 44 44 45 45 45 46 47 48 49 50 50 51 54 57 58 59 62 66 68 68 67 66 65 64 65 66 66 66 67 67 67 66 66 66 67 67
74 70 67 66 63 58 54 51 49 45 41 38 36 34 34 34 34 33 34 34 35 36 36 37 38 39 40 41 42 42 43 43 43 43 42 41 40 41 42 43 44 45 46 46 46 46 46 45 45 45 46 46 46 46 46 47 48 49 49 49 51 55 58 58 60 65 70 70 69 68 66 65 65 65 66 66 65 65 65 64 64 63 62 61 61
71 68 66 65 64 59 54 51 47 43 40 37 36 35 35 35 35 35 35 35 36 37 38 39 40 41 42 43 44 44 45 45 46 45 44 44 43 44 44 45 46 47 48 49 48 47 47 46 46 46 47 47 47 47 48 48 49 50 50 50 52 55 59 60 62 66 71 72 71 69 67 65 64 64 65 64 64 63 62 61 60 59 58 57 55
70 67 65 65 64 60 53 49 45 42 39 38 36 36 36 36 37 37 37 37 38 39 40 41 42 43 45 46 46 46 47 47 47 47 47 46 46 46 47 47 48 50 51 51 50 49 48 48 48 47 47 47 48 48 49 49 50 51 51 51 53 56 60 62 64 68 72 73 72 69 67 65 64 64 63 63 62 61 60 58 56 54 53 52 50
69 67 65 64 63 58 53 49 45 42 40 38 38 37 38 39 39 40 40 40 41 42 43 44 45 46 47 48 48 49 48 49 49 49 49 48 48 49 49 50 51 52 53 53 52 51 50 49 48 48 48 48 49 49 50 50 51 52 52 53 55 58 61 64 67 68 71 73 72 70 67 65 63 63 62 61 59 58 56 54 52 50 48 48 47
70 68 66 65 61 56 53 50 46 44 41 41 40 40 41 42 42 43 43 44 44 44 45 46 48 50 50 51 51 50 50 50 51 50 50 50 51 51 52 53 54 55 55 55 54 52 51 49 49 49 49 50 51 51 51 51 51 52 52 54 57 60 62 65 69 69 71 73 71 68 67 64 61 60 59 58 56 55 53 51 49 48 46 45 45
70 69 67 64 60 57 54 51 47 45 44 43 43 44 45 45 46 46 46 47 47 47 48 49 51 52 53 53 53 52 52 52 52 52 52 53 53 54 55 56 56 57 57 56 55 53 51 50 49 50 52 52 53 52 51 51 51 51 53 55 58 62 63 66 70 71 71 72 70 67 65 63 60 58 56 56 54 51 50 48 47 46 45 45 44
71 70 68 65 61 57 54 50 48 47 47 47 47 48 48 49 50 50 50 51 51 52 53 53 53 54 55 55 55 55 55 55 55 54 54 55 56 57 58 58 58 59 58 57 56 53 51 51 51 53 54 54 54 52 51 51 51 51 54 57 60 64 65 66 70 72 72 71 69 66 64 63 60 57 54 53 51 50 49 48 48 47 47 46 44
72 71 69 66 62 57 54 52 52 52 52 53 53 53 54 54 55 56 56 56 57 57 57 57 57 58 58 58 58 58 58 59 58 56 56 58 59 60 60 60 60 60 59 58 56 54 53 52 53 55 56 55 54 53 52 51 52 53 56 59 63 66 68 68 69 71 71 69 67 65 63 61 59 56 52 50 49 49 49 49 49 49 48 47 46
73 72 70 66 61 58 57 58 59 59 60 60 60 61 61 61 61 61 61 61 61 61 62 62 62 62 62 62 62 61 61 61 59 58 59 60 61 61 62 62 62 61 60 59 57 55 54 54 55 56 57 57 55 54 53 53 53 56 58 62 65 69 71 71 70 69 68 67 64 62 60 59 57 55 54 52 51 50 51 50 50 49 48 48 48
74 72 69 65 62 61 62 63 63 64 64 65 65 65 65 65 65 65 66 66 66 65 65 65 65 66 66 65 64 63 62 61 61 61 61 62 62 62 63 64 63 63 61 60 58 57 56 56 56 58 59 58 57 54 54 54 56 58 61 64 67 71 73 72 71 70 68 65 62 60 59 58 56 55 54 54 53 53 52 51 51 50 49 49 49
74 71 67 65 64 65 66 66 66 66 67 67 67 67 67 67 67 67 67 66 66 66 66 66 66 67 66 66 64 63 62 62 62 62 62 62 62 63 64 65 64 64 63 61 60 59 58 58 59 60 60 59 58 56 56 57 58 60 64 66 69 73 74 73 72 71 70 67 63 60 58 57 57 56 54 53 53 53 53 52 52 51 50 50 49
73 71 69 68 69 69 69 68 68 68 68 68 68 68 68 68 67 67 66 66 65 65 65 66 66 66 65 65 64 64 63 63 62 62 61 62 62 64 65 65 66 65 64 63 62 61 61 60 60 61 61 60 60 59 59 61 62 64 66 69 72 74 75 74 73 72 70 68 65 62 59 57 57 56 54 53 53 52 52 52 52 51 51 51 50
75 75 74 74 74 73 71 70 69 68 68 67 67 67 68 68 67 67 67 67 66 66 66 66 66 65 65 65 64 63 62 62 61 60 60 61 62 63 65 66 67 67 66 65 64 63 63 63 63 63 63 63 63 62 63 65 66 67 69 72 74 76 76 75 74 72 71 69 66 63 61 59 57 56 54 54 54 53 52 52 52 51 51 51 52
79 79 79 78 76 74 72 70 69 68 67 66 66 67 68 68 68 68 67 67 67 66 65 65 65 65 64 63 62 61 60 59 58 58 58 60 61 63 65 66 67 67 67 67 66 65 65 65 65 65 65 65 65 65 67 69 70 70 71 73 76 78 78 77 75 74 72 69 66 64 62 59 57 56 55 55 55 54 54 52 52 52 52 53 53
81 81 80 78 75 73 71 69 68 67 66 66 67 68 69 69 69 68 68 67 66 65 64 62 61 61 60 58 57 57 56 56 56 56 57 59 61 63 65 65 67 68 68 69 68 68 67 68 68 68 68 67 68 69 71 73 74 74 74 75 76 79 79 79 77 75 72 69 67 65 62 59 57 56 55 55 55 54 53 52 52 52 53 54 54
80 78 77 75 73 72 70 69 68 68 68 69 69 69 70 69 69 67 66 64 62 60 59 57 56 56 56 55 54 54 53 54 55 56 57 58 61 64 65 66 67 68 69 70 70 69 70 70 71 71 70 71 72 74 77 79 78 77 77 78 78 80 80 79 77 75 72 69 66 63 60 58 56 56 55 54 53 52 52 51 51 51 52 53 53
78 77 75 73 72 71 70 71 71 71 72 71 71 71 70 68 65 63 61 60 58 57 56 54 54 54 53 53 53 52 52 53 54 55 56 58 61 65 67 68 69 70 71 71 71 72 72 73 73 73 73 74 76 79 82 83 81 80 80 80 81 82 82 80 77 74 70 67 64 62 59 57 56 55 54 52 51 51 51 51 51 51 51 52 51
80 80 78 76 74 73 73 74 74 75 75 74 72 69 66 64 62 60 59 58 57 56 55 53 53 52 52 52 51 51 51 51 52 54 55 58 62 67 69 71 72 72 73 72 73 74 75 76 76 75 76 77 80 82 84 84 83 83 83 83 83 84 82 80 77 74 71 67 64 61 59 57 55 54 52 51 51 51 51 52 52 52 51 50 48
85 84 83 81 79 77 77 77 77 78 77 73 69 66 64 63 61 60 59 58 57 56 55 53 52 52 52 51 51 50 51 51 52 53 55 59 65 70 73 74 75 75 75 75 75 77 78 78 77 78 79 82 85 86 85 84 83 83 84 84 84 84 82 80 77 74 70 67 63 60 57 56 53 52 52 51 51 51 51 51 51 50 49 47 45
89 88 87 85 82 80 79 80 79 77 74 70 67 66 65 63 61 60 59 58 57 56 55 53 53 52 52 52 51 50 51 52 53 54 57 62 68 72 75 76 77 77 77 77 78 79 80 79 79 81 85 87 89 88 85 83 83 83 83 84 84 84 82 80 76 73 69 66 62 59 56 54 52 51 51 50 50 49 49 48 48 47 45 42 39
92 90 88 85 83 82 81 80 77 73 70 67 67 66 64 62 60 59 59 58 57 56 55 54 54 53 53 52 51 51 52 53 54 56 59 64 69 72 74 76 77 79 79 80 81 82 82 81 82 87 91 91 90 89 87 84 83 83 83 84 84 83 82 80 77 73 68 64 61 57 55 53 51 51 50 50 49 47 46 46 45 43 41 37 32
92 89 85 85 85 83 81 77 74 71 69 67 66 65 62 60 59 59 58 58 57 57 57 56 56 55 55 54 54 55 55 56 57 59 62 66 69 72 74 76 78 81 82 83 85 85 86 87 89 92 94 93 92 92 90 87 84 84 84 84 84 84 82 80 77 72 67 63 59 56 55 54 52 51 51 49 48 46 46 45 43 39 36 32 27
90 88 87 87 85 82 78 74 72 70 68 66 64 62 60 59 59 59 59 59 59 59 59 59 59 58 59 59 59 60 60 61 62 63 65 68 71 74 76 76 78 83 86 88 89 90 91 93 94 95 95 94 94 94 93 90 87 85 84 85 85 84 82 79 75 71 66 62 59 57 55 54 53 52 50 49 48 47 45 42 39 35 30 26 23
91 90 89 87 82 78 74 72 70 68 66 63 61 60 60 60 61 61 62 62 63 62 62 62 62 63 63 64 65 65 65 66 66 67 69 72 75 78 79 79 80 85 91 94 95 95 96 98 97 96 95 96 96 96 94 92 89 86 85 85 85 83 81 78 74 69 65 61 58 56 55 53 52 51 49 48 47 45 42 39 34 30 25 22 20
92 90 87 82 77 74 72 70 69 67 64 61 60 60 62 65 67 68 68 67 66 65 64 64 66 67 68 69 69 69 69 69 70 71 72 75 79 83 84 82 81 87 94 98 98 98 99 99 99 98 98 99 99 98 95 92 89 87 85 85 85 83 81 77 72 67 63 59 57 56 54 52 51 50 49 47 44 42 39 34 28 24 21 20 22
89 85 81 77 74 73 71 69 67 64 62 61 62 64 68 71 74 74 73 69 67 66 66 67 68 70 71 72 71 71 71 71 71 72 74 76 80 85 88 86 84 87 94 99 99 99 98 99 99 99 100 101 100 98 94 91 89 87 84 84 85 83 80 76 71 66 62 59 57 55 53 51 50 50 48 45 42 38 33 28 23 21 20 23 31
84 81 78 76 74 72 70 68 65 64 64 65 67 70 73 76 77 76 74 71 70 69 69 70 71 72 73 73 73 72 72 72 71 72 74 77 81 85 89 90 87 86 92 98 99 98 98 99 100 100 101 101 100 97 94 91 89 86 85 85 85 83 79 74 70 65 61 58 56 54 52 50 49 48 45 42 37 32 27 23 21 21 25 33 42
82 79 77 76 74 72 69 67 66 68 70 71 73 74 75 76 76 75 74 73 73 72 73 74 74 74 74 75 74 74 74 73 72 73 74 77 80 83 87 91 89 87 91 97 100 99 100 100 101 101 101 100 98 96 93 90 87 86 85 85 83 81 77 73 69 65 61 58 55 52 50 49 47 44 41 37 31 26 23 21 22 26 35 42 45
80 79 77 75 73 70 69 69 71 73 75 75 75 75 75 75 75 75 75 75 75 76 76 76 76 76 76 76 76 75 75 74 73 73 75 78 81 83 86 89 89 88 91 97 100 100 100 101 101 100 100 99 98 95 92 88 87 86 85 84 82 79 75 71 68 64 60 56 53 51 49 46 43 40 37 31 25 22 21 23 28 37 42 42 40
78 78 76 74 72 71 73 75 76 77 77 76 76 75 75 76 76 76 75 75 74 74 74 74 74 75 75 75 74 74 74 73 72 73 74 77 81 84 87 88 87 87 91 97 100 101 101 101 100 100 99 98 97 94 91 88 86 85 84 83 81 77 73 70 66 62 58 54 51 49 46 43 39 36 31 26 22 22 24 29 38 43 42 38 38
77 76 76 75 74 75 76 76 76 75 74 74 74 74 75 75 75 75 74 73 71 69 67 67 67 67 68 68 69 69 70 70 69 70 71 74 78 83 86 87 86 86 91 98 101 101 101 101 100 99 99 98 96 94 90 88 86 85 84 82 79 75 72 68 64 59 56 52 49 47 43 39 36 32 26 23 23 25 30 37 42 42 39 38 42
77 76 76 75 75 75 75 74 74 73 73 73 74 74 75 75 75 74 72 70 66 63 61 60 59 59 60 61 61 62 63 64 64 65 67 71 75 80 83 85 85 86 92 99 102 101 101 101 100 99 99 97 95 93 90 88 86 85 83 80 77 73 70 66 61 57 53 50 47 43 39 36 32 27 24 24 26 30 37 43 43 40 40 41 42
76 75 75 75 75 75 75 75 75 75 75 75 75 75 75 75 74 72 68 65 61 58 55 54 54 53 53 54 56 57 59 60 61 62 65 69 73 77 80 82 83 87 94 101 101 100 101 101 100 99 99 97 95 92 90 88 86 85 82 79 75 71 68 63 59 56 51 47 44 40 36 33 28 24 24 27 29 35 42 44 41 40 42 42 40
75 75 76 76 77 77 77 76 76 76 76 76 76 76 75 73 70 67 64 61 56 52 50 50 50 50 51 53 54 56 57 59 60 63 65 68 72 75 78 80 83 89 97 101 101 100 101 100 99 99 98 97 95 92 89 87 85 83 81 78 73 69 65 61 57 53 49 44 40 37 34 29 25 24 26 28 33 40 44 43 41 42 43 42 40
78 79 80 80 80 79 79 78 77 76 76 75 75 73 71 69 66 64 60 56 52 48 48 49 51 51 52 53 54 56 58 59 61 63 65 68 72 76 78 80 86 94 100 101 100 101 100 99 98 98 98 96 93 90 88 86 84 82 79 75 70 66 62 58 54 50 45 41 38 34 30 26 24 25 28 31 38 44 44 40 41 43 42 40 40
82 83 82 82 82 81 81 79 78 77 75 73 71 70 69 66 63 60 56 52 49 49 50 51 52 52 53 54 56 58 60 62 63 64 65 69 75 77 78 83 91 98 101 101 100 100 100 98 98 98 97 94 91 88 86 85 83 81 77 72 67 64 59 55 51 46 42 39 35 30 26 24 25 26 30 36 43 44 41 39 42 43 42 40 40
84 84 83 82 82 81 79 78 76 74 72 70 69 68 66 63 60 57 54 51 51 52 52 52 52 53 55 57 59 62 64 65 65 66 68 73 77 79 81 88 96 100 101 100 100 100 99 98 98 97 95 92 89 87 86 85 82 78 73 69 64 61 56 52 48 44 40 37 31 26 24 24 26 29 35 41 44 42 39 40 43 43 41 40 41
84 83 82 81 80 79 77 75 73 72 71 70 68 65 62 60 58 56 54 53 53 54 53 53 54 57 59 61 63 65 66 67 68 70 74 77 79 81 85 93 99 100 100 100 100 99 98 98 97 95 93 90 87 86 85 83 79 75 70 65 61 57 52 48 45 42 38 33 27 24 24 26 28 34 40 43 42 40 40 42 44 43 41 42 47
84 83 81 80 79 77 76 75 74 72 71 68 65 62 60 59 58 57 56 55 54 54 54 56 58 61 64 66 68 69 70 70 72 75 79 81 81 83 89 96 100 100 100 100 99 98 98 97 95 93 90 88 87 86 84 80 76 71 67 62 58 53 49 45 42 39 34 27 24 24 26 28 32 38 42 41 40 40 42 44 45 43 43 48 58
84 83 82 80 79 78 77 75 73 70 66 63 61 60 60 60 59 58 57 56 56 56 58 60 63 66 68 71 73 74 75 76 77 80 81 81 82 85 93 99 101 100 100 100 99 98 97 95 93 91 89 87 86 85 81 77 72 67 63 59 54 50 46 43 39 34 28 24 24 26 28 31 37 41 41 40 40 42 43 44 44 44 48 58 70
82 82 81 80 77 75 72 69 65 62 60 58 59 60 60 60 59 59 58 58 59 60 63 65 67 70 73 75 77 79 80 80 80 82 82 81 83 89 96 100 101 101 101 99 98 96 94 93 92 90 88 86 85 82 78 73 68 64 60 55 51 47 44 40 35 29 25 23 25 28 31 36 40 41 39 39 40 42 43 44 44 47 56 68 78
75 74 73 71 68 65 62 60 58 58 59 60 61 62 61 61 61 60 61 62 63 64 67 69 71 74 76 78 79 81 81 81 82 82 81 82 86 93 99 102 101 101 100 98 96 94 92 91 90 88 87 85 83 79 74 69 65 61 57 52 48 44 41 36 30 25 23 25 27 30 34 39 41 39 39 40 41 43 44 44 46 54 66 75 82
65 65 64 63 61 60 59 59 60 62 63 63 64 64 64 64 64 64 64 65 66 67 70 72 74 76 77 79 81 82 82 82 83 82 81 84 91 98 102 102 101 100 98 96 94 92 91 90 88 87 85 83 80 75 70 66 61 57 53 49 45 41 36 30 26 24 24 26 29 32 37 40 40 38 39 40 42 44 46 48 53 64 74 80 86